(134903) = 2000 XZ9

Discovered at Socorro on 2000-12-01 by LINEAR.

Orbit

Orbit type: Main Belt

Note: WebGL enabled browser required.

epoch2024-03-31.0
epoch JD2460400.5
perihelion date2024-01-23.91822
perihelion JD2460333.41822
argument of perihelion (°)22.95732
ascending node (°)10.16089
inclination (°)7.30565
eccentricity0.1426190
perihelion distance (AU)1.9271494
Tisserand w.r.t. Jupiter3.6
ΔV w.r.t. Earth (km/sec)8.9
semimajor axis (AU)2.2477164
mean anomaly (°)19.61987
mean daily motion (°/day)0.29247690
aphelion distance (AU)2.568
period (years)3.37
P-vector [x]0.83810371
P-vector [y]0.47869405
P-vector [z]0.26159926
Q-vector [x]-0.54504947
Q-vector [y]0.71510597
Q-vector [z]0.43765800
absolute magnitude16.48
phase slope0.15
uncertainty0
referenceMPEC 2024-C46
observations used923
oppositions15
arc length (days)8465
first opposition used2000
last opposition used2024
residual rms (arc-secs)0.71
perturbers coarse indicatorM-v
perturbers precise indicator003Ek
first observation date used2000-12-01.0
last observation date used2024-02-04.0
computer nameMPCLINUX
JD of orbit computation2456670.772898
perihelion JD uncertainty (days)6.2214E-05
argument of perihelion uncertainty (°)3.1620E-05
ascending node uncertainty (°)2.4642E-05
inclination uncertainty (°)6.2716E-06
eccentricity uncertainty 6.2432E-08
perihelion distance uncertainty (AU)1.4438E-07
Minimum Orbit Intersection Distances (in AU)
for orbit epoch: 2460200.5, reference: E2024-C46
Mercury1.59747
Venus1.20753
Earth0.93387
Mars0.48241
Jupiter2.87343
Saturn6.92319
Uranus15.9652
Neptune27.9106

Observations

935 total observations over interval: 2000 12 01.44276 – 2024 02 04.244503
These data are available for download (format description).

Date (UT) J2000 RA J2000 Dec Magn Location Ref
2000 12 01.44276 07 49 56.20 +33 22 07.8 19.3   704 – Lincoln Laboratory ETS, New Mexico MPS 23069
2000 12 01.45837 07 49 55.98 +33 22 12.4 18.8   704 – Lincoln Laboratory ETS, New Mexico MPS 23069
2000 12 01.47283 07 49 55.64 +33 22 16.9 19.0   704 – Lincoln Laboratory ETS, New Mexico MPS 23069
2000 12 01.48733 07 49 55.37 +33 22 21.8 19.0   704 – Lincoln Laboratory ETS, New Mexico MPS 23069
2000 12 04.35694 07 48 59.77 +33 38 09.0 18.7   704 – Lincoln Laboratory ETS, New Mexico MPS 23069
2000 12 04.37172 07 48 59.28 +33 38 13.4 18.8   704 – Lincoln Laboratory ETS, New Mexico MPS 23069
2000 12 04.38650 07 48 58.91 +33 38 18.7 18.9   704 – Lincoln Laboratory ETS, New Mexico MPS 23069
2000 12 04.40167 07 48 58.57 +33 38 24.3 19.3   704 – Lincoln Laboratory ETS, New Mexico MPS 23069
2000 12 04.41656 07 48 58.15 +33 38 28.9 19.2   704 – Lincoln Laboratory ETS, New Mexico MPS 23069
2000 12 06.38782 07 48 06.41 +33 49 25.2 19.5   704 – Lincoln Laboratory ETS, New Mexico MPS 23069
2000 12 06.40342 07 48 05.87 +33 49 29.8 19.2   704 – Lincoln Laboratory ETS, New Mexico MPS 23069
2000 12 06.41860 07 48 05.51 +33 49 34.2 19.1   704 – Lincoln Laboratory ETS, New Mexico MPS 23069
2000 12 06.43379 07 48 04.97 +33 49 39.9 19.2   704 – Lincoln Laboratory ETS, New Mexico MPS 23069
2000 12 19.30750 07 38 20.89 +34 58 04.2 18.8   704 – Lincoln Laboratory ETS, New Mexico MPS 24061
2000 12 19.32275 07 38 19.90 +34 58 08.4 19.2   704 – Lincoln Laboratory ETS, New Mexico MPS 24061
2000 12 19.33801 07 38 18.90 +34 58 13.1 18.7   704 – Lincoln Laboratory ETS, New Mexico MPS 24061
2000 12 19.35327 07 38 17.94 +34 58 17.2 19.7   704 – Lincoln Laboratory ETS, New Mexico MPS 24061
2000 12 19.36853 07 38 16.90 +34 58 20.9 19.4   704 – Lincoln Laboratory ETS, New Mexico MPS 24061
2001 01 04.28761 07 18 55.59 +35 52 40.8 18.6 R 699 – Lowell Observatory-LONEOS MPS 25348
2001 01 04.31115 07 18 53.77 +35 52 43.6   699 – Lowell Observatory-LONEOS MPS 25348
2001 01 04.33473 07 18 51.67 +35 52 46.1   699 – Lowell Observatory-LONEOS MPS 25348
2001 01 04.35830 07 18 49.72 +35 52 48.1   699 – Lowell Observatory-LONEOS MPS 25348
2001 01 05.30492 07 17 33.97 +35 54 16.6 18.0   704 – Lincoln Laboratory ETS, New Mexico MPS 24061
2001 01 05.32029 07 17 32.71 +35 54 18.6 18.5   704 – Lincoln Laboratory ETS, New Mexico MPS 24061
2001 01 05.33575 07 17 31.40 +35 54 19.3 18.3   704 – Lincoln Laboratory ETS, New Mexico MPS 24061
2001 01 05.35114 07 17 30.21 +35 54 19.7 18.9   704 – Lincoln Laboratory ETS, New Mexico MPS 24061
2001 01 05.36652 07 17 28.91 +35 54 21.6 19.2   704 – Lincoln Laboratory ETS, New Mexico MPS 24061
2001 01 26.22666 06 52 37.69 +35 31 32.2 19.0   704 – Lincoln Laboratory ETS, New Mexico MPS 25348
2001 01 26.24162 06 52 36.83 +35 31 29.4 18.9   704 – Lincoln Laboratory ETS, New Mexico MPS 25348
2001 01 26.25669 06 52 35.96 +35 31 26.4 19.4   704 – Lincoln Laboratory ETS, New Mexico MPS 25348
2001 01 26.27165 06 52 35.05 +35 31 23.3 18.8   704 – Lincoln Laboratory ETS, New Mexico MPS 25348
2001 01 26.28661 06 52 34.29 +35 31 20.0 18.8   704 – Lincoln Laboratory ETS, New Mexico MPS 25348
2003 08 25.33911 01 59 30.39 +11 03 09.0 18.7   704 – Lincoln Laboratory ETS, New Mexico MPS 84490
2003 08 25.35135 01 59 30.72 +11 03 14.2 19.2   704 – Lincoln Laboratory ETS, New Mexico MPS 84490
2003 08 25.36429 01 59 31.04 +11 03 19.3 19.2   704 – Lincoln Laboratory ETS, New Mexico MPS 84490
2003 08 25.37717 01 59 31.39 +11 03 25.2 19.6   704 – Lincoln Laboratory ETS, New Mexico MPS 84490
2003 08 25.39017 01 59 31.75 +11 03 30.2 19.6   704 – Lincoln Laboratory ETS, New Mexico MPS 84490
2003 09 18.47508 02 00 52.18 +13 18 38.0 19.6 V 691 – Steward Observatory, Kitt Peak-Spacewatch MPS 84490
2003 09 18.48871 02 00 51.83 +13 18 41.4 19.1 V 691 – Steward Observatory, Kitt Peak-Spacewatch MPS 84490
2003 09 18.50212 02 00 51.48 +13 18 44.6 19.0 V 691 – Steward Observatory, Kitt Peak-Spacewatch MPS 84490
2003 09 18.57856 02 00 49.80 +13 19 05.4 20.8   608 – Haleakala-AMOS MPS 86128
2003 09 18.58918 02 00 49.51 +13 19 08.2 19.7   608 – Haleakala-AMOS MPS 86128
2003 09 18.59835 02 00 49.27 +13 19 10.2 19.7   608 – Haleakala-AMOS MPS 86128
2003 09 20.36760 02 00 04.82 +13 26 15.2 18.4 R 699 – Lowell Observatory-LONEOS MPS 85117
2003 09 20.38099 02 00 04.39 +13 26 18.7   699 – Lowell Observatory-LONEOS MPS 85117
2003 09 20.39431 02 00 03.99 +13 26 21.7   699 – Lowell Observatory-LONEOS MPS 85117
2003 09 20.40768 02 00 03.59 +13 26 25.5   699 – Lowell Observatory-LONEOS MPS 85117
2003 09 21.32064 01 59 37.90 +13 29 55.1 18.4   704 – Lincoln Laboratory ETS, New Mexico MPS 85117
2003 09 21.33283 01 59 37.51 +13 29 58.0 18.8   704 – Lincoln Laboratory ETS, New Mexico MPS 85117
2003 09 21.34517 01 59 37.10 +13 30 00.4 18.8   704 – Lincoln Laboratory ETS, New Mexico MPS 85117
2003 09 21.35734 01 59 36.72 +13 30 03.5 19.2   704 – Lincoln Laboratory ETS, New Mexico MPS 85117
2003 09 21.37015 01 59 36.31 +13 30 06.1 19.3   704 – Lincoln Laboratory ETS, New Mexico MPS 85117
2003 09 24.59966 01 57 49.04 +13 41 32.0 20.6   608 – Haleakala-AMOS MPS 85117
2003 09 24.61039 01 57 48.62 +13 41 33.8 19.9   608 – Haleakala-AMOS MPS 85117
2003 09 24.62074 01 57 48.20 +13 41 35.8 19.4   608 – Haleakala-AMOS MPS 85117
2003 09 26.29144 01 56 44.68 +13 46 53.3 18.7   704 – Lincoln Laboratory ETS, New Mexico MPS 86128
2003 09 26.30399 01 56 44.11 +13 46 56.0 19.1   704 – Lincoln Laboratory ETS, New Mexico MPS 86128
2003 09 26.31665 01 56 43.64 +13 46 58.7 19.4   704 – Lincoln Laboratory ETS, New Mexico MPS 86128
2003 09 26.32935 01 56 43.00 +13 47 01.0 18.9   704 – Lincoln Laboratory ETS, New Mexico MPS 86128
2003 09 26.34210 01 56 42.45 +13 47 03.9 19.6   704 – Lincoln Laboratory ETS, New Mexico MPS 86128
2003 09 29.29160 01 54 35.19 +13 55 23.6 18.8   704 – Lincoln Laboratory ETS, New Mexico MPS 86128
2003 09 29.30602 01 54 34.46 +13 55 25.9 18.9   704 – Lincoln Laboratory ETS, New Mexico MPS 86128
2003 09 29.31925 01 54 33.81 +13 55 28.0 18.5   704 – Lincoln Laboratory ETS, New Mexico MPS 86128
2003 09 29.33248 01 54 33.15 +13 55 30.5 18.7   704 – Lincoln Laboratory ETS, New Mexico MPS 86128
2003 09 29.34585 01 54 32.49 +13 55 32.7 18.9   704 – Lincoln Laboratory ETS, New Mexico MPS 86128
2003 09 29.42477 01 54 28.64 +13 55 44.9 18.5 V 691 – Steward Observatory, Kitt Peak-Spacewatch MPS 86128
2003 09 29.45372 01 54 27.20 +13 55 49.3 19.1 V 691 – Steward Observatory, Kitt Peak-Spacewatch MPS 86128
2003 09 29.48093 01 54 25.87 +13 55 53.3 18.9 V 691 – Steward Observatory, Kitt Peak-Spacewatch MPS 86128
2003 10 14.34104 01 40 08.54 +14 18 48.5 18.0 R 699 – Lowell Observatory-LONEOS MPS 87289
2003 10 14.36086 01 40 07.18 +14 18 48.2   699 – Lowell Observatory-LONEOS MPS 87289
2003 10 14.38075 01 40 05.79 +14 18 49.1   699 – Lowell Observatory-LONEOS MPS 87289
2003 10 14.40063 01 40 04.41 +14 18 50.2   699 – Lowell Observatory-LONEOS MPS 87289
2003 10 18.35114 01 35 40.76 +14 20 07.1 18.5 V 691 – Steward Observatory, Kitt Peak-Spacewatch MPS 87838
2003 10 18.37934 01 35 38.75 +14 20 07.2 17.9 V 691 – Steward Observatory, Kitt Peak-Spacewatch MPS 87838
2003 10 18.40753 01 35 36.78 +14 20 07.2 17.9 V 691 – Steward Observatory, Kitt Peak-Spacewatch MPS 87838
2003 10 21.21658 01 32 27.85 +14 20 01.9 17.9 R 699 – Lowell Observatory-LONEOS MPS 87838
2003 10 21.23651 01 32 26.43 +14 20 01.7   699 – Lowell Observatory-LONEOS MPS 87838
2003 10 21.25651 01 32 25.01 +14 20 00.9   699 – Lowell Observatory-LONEOS MPS 87838
2003 10 21.27657 01 32 23.65 +14 20 01.3   699 – Lowell Observatory-LONEOS MPS 87838
2003 10 21.27785 01 32 23.52 +14 20 01.8 17.9   704 – Lincoln Laboratory ETS, New Mexico MPS 87838
2003 10 21.28313 01 32 23.22 +14 20 01.2 17.6   644 – Palomar Mountain/NEAT MPS 87838
2003 10 21.29067 01 32 22.58 +14 20 01.4 18.0   704 – Lincoln Laboratory ETS, New Mexico MPS 87838
2003 10 21.30338 01 32 21.71 +14 20 01.2 18.2   704 – Lincoln Laboratory ETS, New Mexico MPS 87838
2003 10 21.30656 01 32 21.56 +14 20 01.0 17.5   644 – Palomar Mountain/NEAT MPS 87838
2003 10 21.31619 01 32 20.82 +14 20 01.2 18.3   704 – Lincoln Laboratory ETS, New Mexico MPS 87838
